Regional Weather Roundup
Issued by NWS

Home | Current Version | Previous Version | Text Only | Print | Product List | Glossary On
Versions: 1 2 3 4 5 6 7 8 9 10 11 12 13 14 15 16 17 18 19 20 21 22 23 24 25 26 27 28 29 30 31 32 33 34 35 36 37 38 39 40 41 42 43 44 45 46 47 48 49 50
000
ASUS44 KOUN 301010
RWROK

WEATHER ROUNDUP FOR OKLAHOMA
NATIONAL WEATHER SERVICE NORMAN OK
500 AM CDT TUE AUG 30 2016

NOTE: "FAIR" INDICATES FEW OR NO CLOUDS BELOW 12,000 FEET WITH NO
      SIGNIFICANT WEATHER AND/OR OBSTRUCTIONS TO VISIBILITY.

OKZ001>007-009>012-014-015-017-301100-
NORTHWEST OKLAHOMA AND THE PANHANDLE

CITY           SKY/WX    TMP DP  RH WIND       PRES   REMARKS
GAGE           CLOUDY    69  68  96 CALM      30.19R
GUYMON         CLOUDY    66  64  93 SW5       30.21F
ENID/WOODRING  CLEAR     72  70  94 N5        30.10S
$$

OKZ016-021>023-033>039-044-045-301100-
SOUTHWEST OKLAHOMA

CITY           SKY/WX    TMP DP  RH WIND       PRES   REMARKS
LAWTON/REGL    CLEAR     72  69  90 N3        30.09S
LAWTON/FT SILL CLEAR     71  70  96 N6        30.08S
FREDERICK      PTCLDY    73  70  90 NE7       30.07S
CLINTON        CLOUDY    72  68  87 N7        30.16S
HOBART         CLEAR     71  69  93 NE6       30.12F
ALTUS AFB      CLEAR     69  66  90 N6        30.10S
$$

OKZ018>020-024>031-301100-
CENTRAL OKLAHOMA

CITY           SKY/WX    TMP DP  RH WIND       PRES   REMARKS
OKLAHOMA CITY  PTCLDY    72  69  90 CALM      30.10S
OKC/WILEY POST MOCLDY    74  70  87 CALM      30.11S
OKC/TINKER AFB CLEAR     70  68  92 E5        30.09F
STILLWATER     CLEAR     71  69  93 CALM      30.10S
GUTHRIE        MOCLDY    71  70  96 E3        30.10S
$$

OKZ008-013-054>072-301100-
NORTHEAST OKLAHOMA

CITY           SKY/WX    TMP DP  RH WIND       PRES   REMARKS
TULSA          CLEAR     72  71  97 CALM      30.07F
TULSA/JONES    CLEAR     71  71 100 CALM      30.08F FOG
PONCA CITY     CLEAR     71  68  90 CALM      30.11R
BARTLESVILLE   CLEAR     68  67  96 CALM      30.11S
MUSKOGEE       CLEAR     71  69  93 CALM      30.09S
$$

OKZ032-040>043-046>053-073>077-301100-
SOUTH CENTRAL/SOUTHEAST OKLAHOMA

CITY           SKY/WX    TMP DP  RH WIND       PRES   REMARKS
ARDMORE/DWNTWN PTCLDY    72  70  94 CALM      30.07S
MCALESTER      CLEAR     73  69  87 CALM      30.08S
$$





USA.gov is the U.S. government's official web portal to all federal, state and local government web resources and services.